Airfield :
LOGIN :

Register | Disclaimer

   EN    FR    IT 

 










Legend :    VFR   Marginal VFR   IFR   Intensive IFR   Very Intensive IFR
Visi :
Ceiling :
>= 8 km
>= 3000ft
5 to 8 km
1000 to 3000 ft
1500m to 5 km
500 to 1000 ft
800 to 1500m
200 to 500 ft
< 800m
< 200 ft
Symbols :   Thunderstorms  Fog  Heavy snow  Heavy precipitations  Wind > 20 kt
SIGMETs :     Misc.  Thunderstorms  Icing  Turbulence  Mountain Waves  Volcanic Ashes







- Airport Elevation : 330 ft
- IATA code : LVA
- Download approach charts


LFOV - Laval-Entrammes

CURRENT METAR :
  • 160300Z AUTO 19006KT 160V220 6000 OVC010 14/13 Q1019

EXPIRED METARs :
  • 160230Z AUTO 20005KT 2900 -RA BR BKN010 OVC014 14/13 Q1019
  • 160200Z AUTO 20006KT 170V240 9999 BKN013 BKN019 BKN025 14/13 Q1019
  • 160130Z AUTO 20008KT 9999 -DZ BKN013 BKN028 OVC034 14/13 Q1019
  • 160100Z AUTO 21006KT 180V240 9999 BKN013 OVC029 14/13 Q1019
  • 160030Z AUTO 21007KT 180V240 9999 BKN015 OVC034 14/13 Q1019

TAF N/A
No reported NOTAMs for that airfield.



MET'MAP, your aeronautical weather chart ! - Copyright ORBIFLY December 2007 - Disclaimer

ORBIFLY MET'MAP TEAM :

Programming & Development : Alexandra Zaïnal
Concept & Development : Baudouin d'Aumeries
Co-Development & Prog : Marc-Olivier Méhu
Technical & hardware support : Manuel Goepfert

Contact : metmap@orbifly.com




SOURCES & CREDITS :

   NOAA